Location: Cahas Mountain Overlook
(37.0833°N, 80.1000°W)
Time: 18:29:15
(UTC-04:00)

SR - Pass Details

Date: 08 February 2026
Orbit: 572 x 849 km, 66.7° (Epoch: 12 March)

Event Time Altitude Azimuth Distance (km) Brightness Sun altitude
Rises 17:09:18 0° 319° (NW) 3,111 ? 7.3°
Reaches altitude 10° 17:11:52 10° 308° (NW) 2,235 ? 6.8°
Maximum altitude 17:16:10 28° 250° (WSW) 1,419 ? 6.0°
Drops below altitude 10° 17:20:43 10° 193° (SSW) 2,366 ? 5.2°
Sets 17:23:31 0° 182° (S) 3,328 ? 4.7°
